EN

Hourly Weather Amarpur

Today, 17 January, Sunday

Time Temperature Precipitation Wind Pressure Humidity
00:00 +13°C° 0 mm 0 mps 755 mmHg 69%
01:00 +12°C° 0 mm 0 mps 755 mmHg 71%
02:00 +12°C° 0 mm 0 mps 755 mmHg 73%
03:00 +12°C° 0 mm 0 mps 755 mmHg 74%
04:00 +11°C° 0 mm 0 mps 755 mmHg 75%
05:00 +11°C° 0 mm 0 mps 755 mmHg 76%
06:00 +10°C° 0 mm 0 mps 756 mmHg 79%
07:00 +12°C° 0 mm 0 mps 756 mmHg 72%
08:00 +14°C° 0 mm 0 mps 757 mmHg 65%
09:00 +16°C° 0 mm 0 mps 757 mmHg 58%
10:00 +18°C° 0 mm 0 mps 757 mmHg 51%
11:00 +22°C° 0 mm 1 mps 757 mmHg 43%
12:00 +24°C° 0 mm 1 mps 757 mmHg 36%
13:00 +25°C° 0 mm 1 mps 756 mmHg 34%
14:00 +26°C° 0 mm 1 mps 755 mmHg 31%
15:00 +26°C° 0 mm 1 mps 754 mmHg 29%
16:00 +25°C° 0 mm 1 mps 754 mmHg 33%
17:00 +23°C° 0 mm 1 mps 754 mmHg 37%
18:00 +21°C° 0 mm 1 mps 754 mmHg 41%
19:00 +20°C° 0 mm 1 mps 755 mmHg 43%
20:00 +19°C° 0 mm 1 mps 755 mmHg 46%
21:00 +19°C° 0 mm 1 mps 756 mmHg 48%
22:00 +18°C° 0 mm 1 mps 756 mmHg 51%
23:00 +15°C° 0 mm 0 mps 756 mmHg 54%

Tomorrow, 18 January, Monday

Time Temperature Precipitation Wind Pressure Humidity
00:00 +15°C° 0 mm 0 mps 756 mmHg 57%
01:00 +14°C° 0 mm 0 mps 755 mmHg 58%
02:00 +15°C° 0 mm 1 mps 755 mmHg 59%
03:00 +15°C° 0 mm 1 mps 755 mmHg 60%
04:00 +14°C° 0 mm 1 mps 755 mmHg 62%
05:00 +14°C° 0 mm 1 mps 755 mmHg 64%
06:00 +13°C° 0 mm 1 mps 755 mmHg 66%
07:00 +15°C° 0 mm 1 mps 756 mmHg 60%
08:00 +18°C° 0 mm 1 mps 756 mmHg 55%
09:00 +20°C° 0 mm 1 mps 757 mmHg 49%
10:00 +22°C° 0 mm 1 mps 756 mmHg 43%
11:00 +25°C° 0 mm 1 mps 756 mmHg 38%
12:00 +27°C° 0 mm 1 mps 756 mmHg 33%
13:00 +28°C° 0 mm 1 mps 755 mmHg 30%
14:00 +28°C° 0 mm 1 mps 754 mmHg 28%
15:00 +29°C° 0 mm 1 mps 753 mmHg 25%
16:00 +27°C° 0 mm 1 mps 753 mmHg 28%
17:00 +25°C° 0 mm 1 mps 753 mmHg 32%
18:00 +23°C° 0 mm 2 mps 753 mmHg 35%
19:00 +21°C° 0 mm 1 mps 753 mmHg 39%
20:00 +20°C° 0 mm 1 mps 753 mmHg 43%
21:00 +19°C° 0 mm 1 mps 753 mmHg 48%
22:00 +19°C° 0 mm 1 mps 753 mmHg 47%
23:00 +18°C° 0 mm 1 mps 753 mmHg 47%

Day after tomorrow, 19 January, Tuesday

Time Temperature Precipitation Wind Pressure Humidity
00:00 +17°C° 0 mm 2 mps 754 mmHg 47%
01:00 +16°C° 0 mm 1 mps 753 mmHg 48%
02:00 +16°C° 0 mm 1 mps 753 mmHg 49%
03:00 +15°C° 0 mm 1 mps 752 mmHg 49%
04:00 +14°C° 0 mm 1 mps 752 mmHg 52%
05:00 +14°C° 0 mm 1 mps 753 mmHg 54%
06:00 +13°C° 0 mm 1 mps 753 mmHg 56%
07:00 +15°C° 0 mm 1 mps 753 mmHg 51%
08:00 +18°C° 0 mm 1 mps 754 mmHg 47%
09:00 +20°C° 0 mm 1 mps 754 mmHg 43%
10:00 +21°C° 0 mm 2 mps 754 mmHg 38%
11:00 +24°C° 0 mm 2 mps 754 mmHg 34%
12:00 +26°C° 0 mm 2 mps 754 mmHg 30%
13:00 +27°C° 0 mm 3 mps 754 mmHg 30%
14:00 +28°C° 0 mm 3 mps 753 mmHg 29%
15:00 +28°C° 0 mm 3 mps 752 mmHg 28%
16:00 +26°C° 0 mm 3 mps 752 mmHg 34%
17:00 +24°C° 0 mm 2 mps 752 mmHg 41%
18:00 +23°C° 0 mm 2 mps 752 mmHg 47%
19:00 +21°C° 0 mm 2 mps 752 mmHg 50%
20:00 +20°C° 0 mm 2 mps 753 mmHg 53%
21:00 +20°C° 0 mm 1 mps 753 mmHg 56%
22:00 +19°C° 0 mm 1 mps 753 mmHg 57%
23:00 +19°C° 0 mm 1 mps 753 mmHg 57%

20 January, Wednesday

Time Temperature Precipitation Wind Pressure Humidity
00:00 +19°C° 0 mm 1 mps 753 mmHg 58%
01:00 +18°C° 0 mm 1 mps 753 mmHg 60%
02:00 +18°C° 0 mm 1 mps 753 mmHg 62%
03:00 +16°C° 0 mm 1 mps 752 mmHg 63%
04:00 +16°C° 0 mm 1 mps 752 mmHg 66%
05:00 +15°C° 0 mm 1 mps 753 mmHg 69%
06:00 +14°C° 0 mm 1 mps 753 mmHg 72%
07:00 +16°C° 0 mm 1 mps 753 mmHg 66%
08:00 +19°C° 0 mm 1 mps 754 mmHg 60%
09:00 +21°C° 0 mm 1 mps 755 mmHg 54%
10:00 +23°C° 0 mm 2 mps 755 mmHg 48%
11:00 +25°C° 0 mm 2 mps 754 mmHg 43%
12:00 +27°C° 0 mm 3 mps 754 mmHg 37%
13:00 +28°C° 0 mm 3 mps 754 mmHg 34%
14:00 +28°C° 0 mm 4 mps 753 mmHg 32%
15:00 +29°C° 0 mm 4 mps 752 mmHg 29%
16:00 +27°C° 0 mm 4 mps 752 mmHg 34%
17:00 +25°C° 0 mm 3 mps 752 mmHg 39%
18:00 +23°C° 0 mm 2 mps 752 mmHg 45%
19:00 +21°C° 0 mm 2 mps 752 mmHg 47%
20:00 +20°C° 0 mm 2 mps 753 mmHg 49%
21:00 +19°C° 0 mm 1 mps 753 mmHg 52%
22:00 +18°C° 0 mm 2 mps 754 mmHg 53%
23:00 +17°C° 0 mm 2 mps 754 mmHg 55%

21 January, Thursday

Time Temperature Precipitation Wind Pressure Humidity
00:00 +16°C° 0 mm 2 mps 754 mmHg 56%
01:00 +16°C° 0 mm 1 mps 753 mmHg 59%
02:00 +15°C° 0 mm 1 mps 753 mmHg 61%
03:00 +14°C° 0 mm 1 mps 753 mmHg 63%
04:00 +13°C° 0 mm 1 mps 753 mmHg 65%
05:00 +13°C° 0 mm 1 mps 753 mmHg 66%
06:00 +12°C° 0 mm 1 mps 753 mmHg 68%
07:00 +14°C° 0 mm 1 mps 754 mmHg 62%
08:00 +16°C° 0 mm 1 mps 755 mmHg 56%
09:00 +19°C° 0 mm 1 mps 755 mmHg 50%
10:00 +21°C° 0 mm 1 mps 755 mmHg 45%
11:00 +23°C° 0 mm 2 mps 755 mmHg 39%
12:00 +25°C° 0 mm 2 mps 755 mmHg 34%
13:00 +25°C° 0 mm 3 mps 754 mmHg 31%
14:00 +26°C° 0 mm 3 mps 754 mmHg 29%
15:00 +27°C° 0 mm 3 mps 753 mmHg 27%
16:00 +25°C° 0 mm 3 mps 753 mmHg 31%
17:00 +22°C° 0 mm 3 mps 753 mmHg 36%
18:00 +20°C° 0 mm 2 mps 753 mmHg 40%
19:00 +19°C° 0 mm 2 mps 753 mmHg 43%
20:00 +18°C° 0 mm 2 mps 754 mmHg 45%
21:00 +17°C° 0 mm 2 mps 754 mmHg 48%
22:00 +17°C° 0 mm 2 mps 754 mmHg 49%
23:00 +16°C° 0 mm 2 mps 754 mmHg 50%

22 January, Friday

Time Temperature Precipitation Wind Pressure Humidity
00:00 +16°C° 0 mm 2 mps 754 mmHg 51%
01:00 +15°C° 0 mm 2 mps 754 mmHg 52%
02:00 +15°C° 0 mm 2 mps 754 mmHg 53%
03:00 +14°C° 0 mm 1 mps 753 mmHg 55%
04:00 +14°C° 0 mm 1 mps 753 mmHg 56%
05:00 +14°C° 0 mm 1 mps 753 mmHg 57%
06:00 +13°C° 0 mm 1 mps 753 mmHg 58%
07:00 +15°C° 0 mm 1 mps 754 mmHg 54%
08:00 +16°C° 0 mm 2 mps 755 mmHg 50%
09:00 +18°C° 0 mm 2 mps 755 mmHg 47%
10:00 +20°C° 0 mm 2 mps 755 mmHg 44%
11:00 +23°C° 0 mm 2 mps 754 mmHg 42%
12:00 +25°C° 0 mm 2 mps 754 mmHg 40%
13:00 +26°C° 0 mm 2 mps 753 mmHg 38%
14:00 +27°C° 0 mm 2 mps 753 mmHg 36%
15:00 +27°C° 0 mm 2 mps 752 mmHg 34%
16:00 +26°C° 0 mm 2 mps 752 mmHg 39%
17:00 +24°C° 0 mm 2 mps 752 mmHg 43%
18:00 +21°C° 0 mm 2 mps 752 mmHg 47%
19:00 +20°C° 0 mm 2 mps 752 mmHg 50%
20:00 +19°C° 0 mm 2 mps 753 mmHg 53%
21:00 +18°C° 0 mm 2 mps 753 mmHg 57%
22:00 +18°C° 0 mm 2 mps 753 mmHg 59%
23:00 +17°C° 0 mm 2 mps 753 mmHg 60%
Show more